Location: *
(49.4547°N, 7.9131°E)
Time: 19:57:19
(UTC+00:00)

Cosmos 1674 - Pass Details

Date: 22 September 2019
Orbit: 494 x 520 km, 82.5° (Epoch: 13 October)

Event Time Altitude Azimuth Distance (km) Brightness Sun altitude
Rises 18:41:05 0° 357° (N) 2,597 6.5 -12.7°
Reaches altitude 10° 18:43:20 10° 6° (N) 1,707 5.4 -13.0°
Maximum altitude 18:46:47 35° 74° (ENE) 826 3.3 -13.6°
Enters shadow 18:48:21 24° 120° (ESE) 1,065 3.7 -13.8°
